Regional Weather Roundup
Issued by NWS Portland, ME

Home | Current Version | Previous Version | Text Only | Print | Product List | Glossary On
Versions: 1 2 3 4 5 6 7 8 9 10 11 12 13 14 15 16 17 18 19 20 21 22 23 24 25 26 27 28 29 30 31 32 33 34 35 36 37 38 39 40 41 42 43 44 45 46 47 48 49 50
000
ASUS41 KGYX 030710
RWRGYX
WEATHER ROUNDUP FOR MAINE AND NEW HAMPSHIRE
NATIONAL WEATHER SERVICE GRAY ME
300 AM EDT TUE MAY 03 2016

MEZ002-005-006-010-012-015-018-020-021-024-026-027-029-030800-
MAINE

CITY           SKY/WX    TMP DP  RH WIND       PRES   REMARKS
PORTLAND       CLOUDY    43  39  86 N5        29.91S
SANFORD        CLOUDY    41  36  81 CALM      29.92R
BAR HARBOR     CLOUDY    42  41  96 NW5       29.87S
WISCASSET      CLOUDY    42  40  92 VRB3      29.90S
ROCKLAND       CLOUDY    41  40  96 N3        29.87F
FRYEBURG       FOG       36  36 100 CALM      29.91R VSB 1
LEWISTONAUBURN CLOUDY    41  36  81 N5        29.89F
AUGUSTA        CLOUDY    40  39  97 NW7       29.90S
WATERVILLE     CLOUDY    40  39  97 N8        29.87S
BANGOR         CLOUDY    44  40  85 NW9       29.89R
GREENVILLE       N/A     35  35 100 NW7       29.86F
MILLINOCKET    CLOUDY    39  37  92 NW7       29.90F
HOULTON        LGT RAIN  40  38  93 N7        29.88F
PRESQUE ISLE   LGT RAIN  40  38  93 N7        29.92
FRENCHVILLE    LGT RAIN  38  35  89 N5        29.93S
CARIBOU        LGT RAIN  40  38  93 N6        29.91F
$$

NHZ002-005-008-009-011-012-014-030800-
NEW HAMPSHIRE

CITY           SKY/WX    TMP DP  RH WIND       PRES   REMARKS
PORTSMOUTH     CLOUDY    43  40  91 W3        29.91S
ROCHESTER      CLOUDY    42  39  89 CALM      29.91R
NASHUA         CLOUDY    43  43 100 CALM      29.92F
MANCHESTER     CLOUDY    44  42  93 CALM      29.90F
CONCORD        FOG       42  40  92 CALM      29.91F VSB 1/2
LACONIA        CLOUDY    41  37  87 SW3       29.91S
PLYMOUTH       CLOUDY    44  43  98 CALM      29.90S
BERLIN         CLOUDY    41  38  89 CALM      29.88F
WHITEFIELD     CLOUDY    42  39  89 CALM      29.89F FOG
JAFFREY        CLOUDY    43  42  97 S5        29.92S FOG
KEENE          CLOUDY    45  43  93 W3        29.94R
LEBANON        CLOUDY    45  43  93 CALM      29.91F FOG
MT WASHINGTON  FOG       27  27 100 W29         N/A  VSB 0   WCI  11
$$

VTZ005-007-008-030800-
VERMONT

CITY           SKY/WX    TMP DP  RH WIND       PRES   REMARKS
ST JOHNSBURY     N/A     44  41  89 MISG      29.89F
MONTPELIER     CLOUDY    41  40  96 NW5       29.95S
BURLINGTON     CLOUDY    45  41  86 N6        29.94F
$$

MAZ007-012-024-CTZ003-RIZ002-NYZ038-NYZ072-030800-
SOUTHERN NEW ENGLAND AND NY

CITY           SKY/WX    TMP DP  RH WIND       PRES   REMARKS
BOSTON         CLOUDY    46  43  89 N5        29.92F
WORCESTER      LGT RAIN  44  43  96 W6        29.91R
NANTUCKET      MOCLDY    47  44  90 N6        29.92F
PROVIDENCE     CLOUDY    50  45  83 NE6       29.92F
HARTFORD       LGT RAIN  48  46  93 N3        29.91F FOG
ALBANY         CLOUDY    47  44  90 N9        29.93F
NEW YORK CITY  RAIN      53  51  93 E7        29.88S FOG
$$

ANZ081-ANZ082-ANZ150-NHZ014-MEZ023>029-030800-
COASTAL MARINE OBSERVATIONS

STATION/POSITION TIME  TEMP    WIND        PRES    WAVE
                       AIR SEA DIR/SP/G            HT/PER
                 (UTC) (F)     (DEG/KT/KT) (MB)    (FT/S)
MOUNT DESERT ROC 0700   42     340/ 19/ 20 1010.3F
MATINICUS ROCK   0700   42     330/ 16/ 18 1011.2R
ISLE OF SHOALS   0700   45     320/  6/  7 1012.7R
CASHES LEDGE BUO 0650   44 44  330/ 14/ 16 1011.9R   5/ 7
GEORGES BANK BUO 0650   47 46              1011.7R   6/ 8
$$

.............KEY..............
   WCI - WIND CHILL
   TC  - TEMPERATURE IN CELSIUS
   VSB - VISIBILITY IN MILES
   HX  - HEAT INDEX
   FAIR- INDICATES FEW OR NO CLOUDS BELOW 12,000 FT, WITH NO
         SIGNIFICANT WEATHER AND/OR OBSTRUCTIONS TO VISIBILITY.






USA.gov is the U.S. government's official web portal to all federal, state and local government web resources and services.